Time,TemperatureF,DewpointF,PressureIn,WindDirection,WindDirectionDegrees,WindSpeedMPH,WindSpeedGustMPH,Humidity,HourlyPrecipIn,Conditions,Clouds,dailyrainin,SoftwareType,DateUTC
2013-04-10 00:04:00,37.6,8.1,30.06,NNE,32,3.0,8.0,29,0.00,CLR,,0.00,WeatherDisplay:10.37,2013-04-10 07:04:00,
2013-04-10 00:09:00,37.6,8.1,30.06,NE,42,2.0,8.0,29,0.00,CLR,,0.00,WeatherDisplay:10.37,2013-04-10 07:09:00,
2013-04-10 00:19:00,37.6,8.1,30.06,NNE,33,3.0,12.0,29,0.00,CLR,,0.00,WeatherDisplay:10.37,2013-04-10 07:19:00,
2013-04-10 00:24:00,37.6,8.1,30.06,NE,43,2.0,12.0,29,0.00,CLR,,0.00,WeatherDisplay:10.37,2013-04-10 07:24:00,
2013-04-10 00:29:00,37.4,8.8,30.06,NE,44,1.0,8.0,30,0.00,CLR,,0.00,WeatherDisplay:10.37,2013-04-10 07:29:00,
2013-04-10 00:34:00,37.2,8.6,30.06,NE,41,5.0,8.0,30,0.00,CLR,,0.00,WeatherDisplay:10.37,2013-04-10 07:34:00,
2013-04-10 00:39:00,37.2,8.6,30.06,NE,46,3.0,6.0,30,0.00,CLR,,0.00,WeatherDisplay:10.37,2013-04-10 07:39:00,
2013-04-10 00:44:00,37.1,8.5,30.06,NE,52,5.0,10.0,30,0.00,CLR,,0.00,WeatherDisplay:10.37,2013-04-10 07:44:00,
2013-04-10 00:49:00,37.2,8.6,30.06,NE,48,2.0,10.0,30,0.00,CLR,,0.00,WeatherDisplay:10.37,2013-04-10 07:49:00,
2013-04-10 00:54:00,37.0,8.4,30.06,NE,52,5.0,9.0,30,0.00,CLR,,0.00,WeatherDisplay:10.37,2013-04-10 07:54:00,
2013-04-10 00:59:00,36.9,8.3,30.06,NNE,27,5.0,13.0,30,0.00,CLR,,0.00,WeatherDisplay:10.37,2013-04-10 07:59:00,
2013-04-10 01:04:00,37.0,8.4,30.06,NNE,16,3.0,13.0,30,0.00,CLR,,0.00,WeatherDisplay:10.37,2013-04-10 08:04:00,
2013-04-10 01:09:00,37.0,8.4,30.06,NNE,24,3.0,10.0,30,0.00,CLR,,0.00,WeatherDisplay:10.37,2013-04-10 08:09:00,
2013-04-10 01:14:00,37.1,8.5,30.06,NE,38,2.0,12.0,30,0.00,CLR,,0.00,WeatherDisplay:10.37,2013-04-10 08:14:00,
2013-04-10 01:24:00,36.9,8.3,30.06,NNE,24,5.0,12.0,30,0.00,CLR,,0.00,WeatherDisplay:10.37,2013-04-10 08:24:00,
2013-04-10 01:29:00,36.9,8.3,30.06,NNE,30,3.0,12.0,30,0.00,CLR,,0.00,WeatherDisplay:10.37,2013-04-10 08:29:00,
2013-04-10 01:39:00,36.7,8.1,30.06,NNE,18,3.0,8.0,30,0.00,CLR,,0.00,WeatherDisplay:10.37,2013-04-10 08:39:00,
2013-04-10 01:49:00,36.9,8.3,30.06,NE,37,3.0,8.0,30,0.00,CLR,,0.00,WeatherDisplay:10.37,2013-04-10 08:49:00,
2013-04-10 01:54:00,36.7,8.1,30.06,NNE,21,5.0,10.0,30,0.00,CLR,,0.00,WeatherDisplay:10.37,2013-04-10 08:54:00,
2013-04-10 01:59:00,36.7,8.1,30.06,NNE,14,3.0,10.0,30,0.00,CLR,,0.00,WeatherDisplay:10.37,2013-04-10 08:59:00,
2013-04-10 02:04:00,36.5,8.7,30.06,NNE,22,5.0,15.0,31,0.00,CLR,,0.00,WeatherDisplay:10.37,2013-04-10 09:04:00,
2013-04-10 02:14:00,36.7,8.8,30.06,NE,36,3.0,18.0,31,0.00,CLR,,0.00,WeatherDisplay:10.37,2013-04-10 09:14:00,
2013-04-10 02:19:00,36.7,8.8,30.06,NNE,31,3.0,8.0,31,0.00,CLR,,0.00,WeatherDisplay:10.37,2013-04-10 09:19:00,
2013-04-10 02:24:00,36.5,8.7,30.06,NNE,27,3.0,10.0,31,0.00,CLR,,0.00,WeatherDisplay:10.37,2013-04-10 09:24:00,
2013-04-10 02:34:00,36.7,8.8,30.06,NNE,25,6.0,15.0,31,0.00,CLR,,0.00,WeatherDisplay:10.37,2013-04-10 09:34:00,
2013-04-10 02:39:00,36.7,8.8,30.06,NNE,27,7.0,11.0,31,0.00,CLR,,0.00,WeatherDisplay:10.37,2013-04-10 09:39:00,
2013-04-10 02:44:00,36.7,8.8,30.06,NNE,29,5.0,9.0,31,0.00,CLR,,0.00,WeatherDisplay:10.37,2013-04-10 09:44:00,
2013-04-10 02:49:00,36.5,8.7,30.06,NNE,14,5.0,8.0,31,0.00,CLR,,0.00,WeatherDisplay:10.37,2013-04-10 09:49:00,
2013-04-10 02:54:00,36.3,8.5,30.06,NNE,32,2.0,13.0,31,0.00,CLR,,0.00,WeatherDisplay:10.37,2013-04-10 09:54:00,
2013-04-10 02:59:00,36.3,8.5,30.06,NE,37,5.0,6.0,31,0.00,CLR,,0.00,WeatherDisplay:10.37,2013-04-10 09:59:00,
2013-04-10 03:04:00,36.4,8.6,30.06,NNE,14,6.0,12.0,31,0.00,CLR,,0.00,WeatherDisplay:10.37,2013-04-10 10:04:00,
2013-04-10 03:09:00,36.3,8.5,30.06,NNE,13,5.0,8.0,31,0.00,CLR,,0.00,WeatherDisplay:10.37,2013-04-10 10:09:00,
2013-04-10 03:14:00,36.3,8.5,30.06,NNE,31,3.0,7.0,31,0.00,CLR,,0.00,WeatherDisplay:10.37,2013-04-10 10:14:00,
2013-04-10 03:19:00,36.5,8.0,30.03,NE,39,7.0,21.0,30,0.00,CLR,,0.00,WeatherDisplay:10.37,2013-04-10 10:19:00,
2013-04-10 03:24:00,36.7,8.1,30.03,NNE,26,7.0,21.0,30,0.00,CLR,,0.00,WeatherDisplay:10.37,2013-04-10 10:24:00,
2013-04-10 03:29:00,36.7,8.1,30.03,NNE,26,5.0,13.0,30,0.00,CLR,,0.00,WeatherDisplay:10.37,2013-04-10 10:29:00,
2013-04-10 03:34:00,36.5,8.0,30.03,NNE,20,8.0,18.0,30,0.00,CLR,,0.00,WeatherDisplay:10.37,2013-04-10 10:34:00,
2013-04-10 03:39:00,36.5,8.0,30.03,North,10,6.0,15.0,30,0.00,CLR,,0.00,WeatherDisplay:10.37,2013-04-10 10:39:00,
2013-04-10 03:44:00,36.3,7.8,30.03,NNE,18,8.0,15.0,30,0.00,CLR,,0.00,WeatherDisplay:10.37,2013-04-10 10:44:00,
2013-04-10 03:49:00,36.3,7.8,30.03,NNE,17,6.0,15.0,30,0.00,CLR,,0.00,WeatherDisplay:10.37,2013-04-10 10:49:00,
2013-04-10 03:54:00,36.2,7.7,30.03,NNE,20,3.0,15.0,30,0.00,CLR,,0.00,WeatherDisplay:10.37,2013-04-10 10:54:00,
2013-04-10 03:59:00,36.1,7.6,30.03,North,11,5.0,15.0,30,0.00,CLR,,0.00,WeatherDisplay:10.37,2013-04-10 10:59:00,
2013-04-10 04:04:00,36.1,7.6,30.03,North,2,5.0,12.0,30,0.00,CLR,,0.00,WeatherDisplay:10.37,2013-04-10 11:04:00,
2013-04-10 04:09:00,36.0,7.5,30.03,NNE,26,6.0,12.0,30,0.00,CLR,,0.00,WeatherDisplay:10.37,2013-04-10 11:09:00,
2013-04-10 04:14:00,36.1,7.6,30.03,NE,35,6.0,12.0,30,0.00,CLR,,0.00,WeatherDisplay:10.37,2013-04-10 11:14:00,
2013-04-10 04:19:00,36.1,7.6,30.03,NNE,27,6.0,11.0,30,0.00,CLR,,0.00,WeatherDisplay:10.37,2013-04-10 11:19:00,
2013-04-10 04:29:00,36.3,7.8,30.03,NNE,15,6.0,11.0,30,0.00,CLR,,0.00,WeatherDisplay:10.37,2013-04-10 11:29:00,
2013-04-10 04:39:00,36.2,7.7,30.03,NNE,22,7.0,20.0,30,0.00,CLR,,0.00,WeatherDisplay:10.37,2013-04-10 11:39:00,
2013-04-10 04:44:00,36.3,7.8,30.03,NNE,28,5.0,13.0,30,0.00,CLR,,0.00,WeatherDisplay:10.37,2013-04-10 11:44:00,
2013-04-10 04:49:00,36.1,7.6,30.03,NE,38,8.0,13.0,30,0.00,CLR,,0.00,WeatherDisplay:10.37,2013-04-10 11:49:00,
2013-04-10 04:54:00,36.1,7.6,30.03,NE,37,7.0,15.0,30,0.00,CLR,,0.00,WeatherDisplay:10.37,2013-04-10 11:54:00,
2013-04-10 04:59:00,36.1,7.6,30.03,NNE,29,6.0,17.0,30,0.00,CLR,,0.00,WeatherDisplay:10.37,2013-04-10 11:59:00,
2013-04-10 05:04:00,36.3,7.8,30.03,NNE,19,6.0,10.0,30,0.00,CLR,,0.00,WeatherDisplay:10.37,2013-04-10 12:04:00,
2013-04-10 05:09:00,36.3,7.8,30.03,NNE,12,7.0,23.0,30,0.00,CLR,,0.00,WeatherDisplay:10.37,2013-04-10 12:09:00,
2013-04-10 05:19:00,36.0,7.5,30.06,NNE,15,7.0,17.0,30,0.00,CLR,,0.00,WeatherDisplay:10.37,2013-04-10 12:19:00,
2013-04-10 05:24:00,35.6,7.2,30.06,NNE,18,6.0,13.0,30,0.00,CLR,,0.00,WeatherDisplay:10.37,2013-04-10 12:24:00,
2013-04-10 05:29:00,35.6,7.2,30.06,North,10,7.0,15.0,30,0.00,CLR,,0.00,WeatherDisplay:10.37,2013-04-10 12:29:00,
2013-04-10 05:39:00,35.4,7.7,30.06,NNE,20,6.0,15.0,31,0.00,CLR,,0.00,WeatherDisplay:10.37,2013-04-10 12:39:00,
2013-04-10 05:49:00,35.4,7.7,30.06,NNE,20,6.0,12.0,31,0.00,CLR,,0.00,WeatherDisplay:10.37,2013-04-10 12:49:00,
2013-04-10 05:54:00,35.4,7.7,30.06,North,5,9.0,20.0,31,0.00,CLR,,0.00,WeatherDisplay:10.37,2013-04-10 12:54:00,
2013-04-10 05:59:00,35.6,7.2,30.06,North,355,8.0,22.0,30,0.00,CLR,,0.00,WeatherDisplay:10.37,2013-04-10 12:59:00,
2013-04-10 06:04:00,35.6,7.2,30.06,North,3,7.0,17.0,30,0.00,CLR,,0.00,WeatherDisplay:10.37,2013-04-10 13:04:00,
2013-04-10 06:09:00,35.6,7.2,30.06,NNE,15,6.0,17.0,30,0.00,CLR,,0.00,WeatherDisplay:10.37,2013-04-10 13:09:00,
2013-04-10 06:14:00,35.6,7.2,30.06,NNE,13,9.0,21.0,30,0.00,CLR,,0.00,WeatherDisplay:10.37,2013-04-10 13:14:00,
2013-04-10 06:19:00,35.6,7.2,30.06,North,9,9.0,23.0,30,0.00,CLR,,0.00,WeatherDisplay:10.37,2013-04-10 13:19:00,
2013-04-10 06:24:00,35.6,7.2,30.06,NNE,16,6.0,22.0,30,0.00,CLR,,0.00,WeatherDisplay:10.37,2013-04-10 13:24:00,
2013-04-10 06:29:00,35.6,7.1,30.06,NNE,17,5.0,13.0,30,0.00,CLR,,0.00,WeatherDisplay:10.37,2013-04-10 13:29:00,
2013-04-10 06:34:00,35.4,7.7,30.06,NNE,15,6.0,12.0,31,0.00,CLR,,0.00,WeatherDisplay:10.37,2013-04-10 13:34:00,
2013-04-10 06:39:00,35.4,7.7,30.06,NNE,29,7.0,22.0,31,0.00,CLR,,0.00,WeatherDisplay:10.37,2013-04-10 13:39:00,
2013-04-10 06:44:00,35.6,7.2,30.06,NE,43,9.0,15.0,30,0.00,CLR,,0.00,WeatherDisplay:10.37,2013-04-10 13:44:00,
2013-04-10 06:49:00,36.0,7.5,30.06,NE,36,7.0,16.0,30,0.00,CLR,,0.00,WeatherDisplay:10.37,2013-04-10 13:49:00,
2013-04-10 06:54:00,36.3,7.8,30.06,NE,35,7.0,15.0,30,0.00,CLR,,0.00,WeatherDisplay:10.37,2013-04-10 13:54:00,
2013-04-10 06:59:00,36.7,8.1,30.06,NE,35,6.0,10.0,30,0.00,CLR,,0.00,WeatherDisplay:10.37,2013-04-10 13:59:00,
2013-04-10 07:04:00,36.9,8.3,30.06,NE,46,6.0,17.0,30,0.00,CLR,,0.00,WeatherDisplay:10.37,2013-04-10 14:04:00,
2013-04-10 07:09:00,37.0,8.4,30.06,NNE,28,8.0,19.0,30,0.00,CLR,,0.00,WeatherDisplay:10.37,2013-04-10 14:09:00,
2013-04-10 07:19:00,37.8,8.3,30.09,NNE,21,7.0,17.0,29,0.00,CLR,,0.00,WeatherDisplay:10.37,2013-04-10 14:19:00,
2013-04-10 07:24:00,38.1,8.6,30.09,NNE,14,7.0,20.0,29,0.00,CLR,,0.00,WeatherDisplay:10.37,2013-04-10 14:24:00,
2013-04-10 07:29:00,38.5,8.9,30.09,NNE,28,8.0,15.0,29,0.00,CLR,,0.00,WeatherDisplay:10.37,2013-04-10 14:29:00,
2013-04-10 07:39:00,38.7,9.1,30.06,NE,40,6.0,16.0,29,0.00,CLR,,0.00,WeatherDisplay:10.37,2013-04-10 14:39:00,
2013-04-10 07:44:00,39.0,9.4,30.06,NE,39,10.0,20.0,29,0.00,CLR,,0.00,WeatherDisplay:10.37,2013-04-10 14:44:00,
2013-04-10 07:49:00,39.2,9.6,30.09,NE,41,6.0,15.0,29,0.00,CLR,,0.00,WeatherDisplay:10.37,2013-04-10 14:49:00,
2013-04-10 07:54:00,39.4,9.7,30.09,NE,37,7.0,15.0,29,0.00,CLR,,0.00,WeatherDisplay:10.37,2013-04-10 14:54:00,
2013-04-10 08:04:00,40.1,10.4,30.09,NE,38,7.0,17.0,29,0.00,CLR,,0.00,WeatherDisplay:10.37,2013-04-10 15:04:00,
2013-04-10 08:09:00,40.5,9.9,30.09,NNE,23,8.0,14.0,28,0.00,CLR,,0.00,WeatherDisplay:10.37,2013-04-10 15:09:00,
2013-04-10 08:14:00,40.5,9.9,30.09,NNE,27,6.0,15.0,28,0.00,CLR,,0.00,WeatherDisplay:10.37,2013-04-10 15:14:00,
2013-04-10 08:19:00,40.7,10.8,30.09,NNE,24,6.0,17.0,29,0.00,CLR,,0.00,WeatherDisplay:10.37,2013-04-10 15:19:00,
2013-04-10 08:24:00,41.0,10.3,30.09,NNE,24,7.0,20.0,28,0.00,CLR,,0.00,WeatherDisplay:10.37,2013-04-10 15:24:00,
2013-04-10 08:29:00,41.4,10.6,30.09,NNE,27,5.0,13.0,28,0.00,CLR,,0.00,WeatherDisplay:10.37,2013-04-10 15:29:00,
2013-04-10 08:34:00,41.7,11.0,30.09,NNE,26,9.0,17.0,28,0.00,CLR,,0.00,WeatherDisplay:10.37,2013-04-10 15:34:00,
2013-04-10 08:39:00,41.8,11.1,30.09,NNE,21,5.0,17.0,28,0.00,CLR,,0.00,WeatherDisplay:10.37,2013-04-10 15:39:00,
2013-04-10 08:44:00,42.4,11.5,30.09,NE,34,3.0,15.0,28,0.00,CLR,,0.00,WeatherDisplay:10.37,2013-04-10 15:44:00,
2013-04-10 08:49:00,42.8,11.9,30.09,NE,43,7.0,15.0,28,0.00,CLR,,0.00,WeatherDisplay:10.37,2013-04-10 15:49:00,
2013-04-10 08:54:00,42.9,12.0,30.09,NE,34,7.0,16.0,28,0.00,CLR,,0.00,WeatherDisplay:10.37,2013-04-10 15:54:00,
2013-04-10 08:59:00,43.0,12.1,30.09,NNE,31,7.0,14.0,28,0.00,CLR,,0.00,WeatherDisplay:10.37,2013-04-10 15:59:00,
2013-04-10 09:04:00,43.5,12.5,30.09,NNE,29,8.0,22.0,28,0.00,CLR,,0.00,WeatherDisplay:10.37,2013-04-10 16:04:00,
2013-04-10 09:09:00,44.3,13.2,30.09,NNE,31,3.0,9.0,28,0.00,CLR,,0.00,WeatherDisplay:10.37,2013-04-10 16:09:00,
2013-04-10 09:19:00,45.5,11.7,30.09,NE,54,5.0,15.0,25,0.00,CLR,,0.00,WeatherDisplay:10.37,2013-04-10 16:19:00,
2013-04-10 09:29:00,47.1,12.1,30.09,NE,38,5.0,13.0,24,0.00,CLR,,0.00,WeatherDisplay:10.37,2013-04-10 16:29:00,
2013-04-10 09:39:00,48.4,12.2,30.09,NE,36,5.0,12.0,23,0.00,CLR,,0.00,WeatherDisplay:10.37,2013-04-10 16:39:00,
2013-04-10 09:44:00,48.7,10.5,30.09,ENE,63,7.0,14.0,21,0.00,CLR,,0.00,WeatherDisplay:10.37,2013-04-10 16:44:00,
2013-04-10 09:54:00,49.6,11.2,30.12,NNE,32,7.0,10.0,21,0.00,CLR,,0.00,WeatherDisplay:10.37,2013-04-10 16:54:00,
2013-04-10 09:59:00,49.8,11.4,30.12,NE,52,6.0,12.0,21,0.00,CLR,,0.00,WeatherDisplay:10.37,2013-04-10 16:59:00,
2013-04-10 10:04:00,50.2,11.7,30.12,NE,54,5.0,13.0,21,0.00,CLR,,0.00,WeatherDisplay:10.37,2013-04-10 17:04:00,
2013-04-10 10:09:00,50.2,11.7,30.12,ENE,70,7.0,13.0,21,0.00,CLR,,0.00,WeatherDisplay:10.37,2013-04-10 17:09:00,
2013-04-10 10:19:00,50.1,11.6,30.12,NE,51,8.0,13.0,21,0.00,CLR,,0.00,WeatherDisplay:10.37,2013-04-10 17:19:00,
2013-04-10 10:24:00,49.8,11.4,30.12,ENE,66,5.0,15.0,21,0.00,CLR,,0.00,WeatherDisplay:10.37,2013-04-10 17:24:00,
2013-04-10 10:29:00,51.1,12.5,30.12,East,84,0.0,7.0,21,0.00,CLR,,0.00,WeatherDisplay:10.37,2013-04-10 17:29:00,
2013-04-10 10:34:00,51.6,12.9,30.12,ENE,57,7.0,16.0,21,0.00,CLR,,0.00,WeatherDisplay:10.37,2013-04-10 17:34:00,
2013-04-10 10:39:00,51.0,12.4,30.12,NE,48,7.0,15.0,21,0.00,CLR,,0.00,WeatherDisplay:10.37,2013-04-10 17:39:00,
2013-04-10 10:44:00,51.1,12.4,30.12,NE,41,5.0,11.0,21,0.00,CLR,,0.00,WeatherDisplay:10.37,2013-04-10 17:44:00,
2013-04-10 10:49:00,51.3,12.6,30.15,ENE,64,5.0,9.0,21,0.00,CLR,,0.00,WeatherDisplay:10.37,2013-04-10 17:49:00,
2013-04-10 10:54:00,51.6,12.9,30.15,East,81,6.0,10.0,21,0.00,CLR,,0.00,WeatherDisplay:10.37,2013-04-10 17:54:00,
2013-04-10 11:04:00,51.6,12.8,30.15,ENE,76,5.0,9.0,21,0.00,CLR,,0.00,WeatherDisplay:10.37,2013-04-10 18:04:00,
2013-04-10 11:09:00,51.3,12.7,30.15,ENE,77,9.0,13.0,21,0.00,CLR,,0.00,WeatherDisplay:10.37,2013-04-10 18:09:00,
2013-04-10 11:14:00,51.8,13.0,30.15,ENE,76,3.0,8.0,21,0.00,CLR,,0.00,WeatherDisplay:10.37,2013-04-10 18:14:00,
2013-04-10 11:19:00,53.0,14.1,30.15,ENE,72,2.0,6.0,21,0.00,CLR,,0.00,WeatherDisplay:10.37,2013-04-10 18:19:00,
2013-04-10 11:24:00,53.5,11.0,30.15,ENE,68,5.0,8.0,18,0.00,CLR,,0.00,WeatherDisplay:10.37,2013-04-10 18:24:00,
2013-04-10 11:29:00,53.1,10.6,30.15,NE,54,2.0,8.0,18,0.00,CLR,,0.00,WeatherDisplay:10.37,2013-04-10 18:29:00,
2013-04-10 11:34:00,53.8,13.6,30.15,NE,53,0.0,8.0,20,0.00,CLR,,0.00,WeatherDisplay:10.37,2013-04-10 18:34:00,
2013-04-10 11:39:00,54.5,14.2,30.15,East,81,3.0,8.0,20,0.00,CLR,,0.00,WeatherDisplay:10.37,2013-04-10 18:39:00,
2013-04-10 11:44:00,53.4,14.4,30.15,ENE,62,6.0,10.0,21,0.00,CLR,,0.00,WeatherDisplay:10.37,2013-04-10 18:44:00,
2013-04-10 11:49:00,53.1,14.1,30.15,ENE,61,5.0,8.0,21,0.00,CLR,,0.00,WeatherDisplay:10.37,2013-04-10 18:49:00,
2013-04-10 11:54:00,53.2,14.2,30.15,NE,43,3.0,12.0,21,0.00,CLR,,0.00,WeatherDisplay:10.37,2013-04-10 18:54:00,
2013-04-10 11:59:00,52.9,14.0,30.15,NNE,27,1.0,8.0,21,0.00,CLR,,0.00,WeatherDisplay:10.37,2013-04-10 18:59:00,
2013-04-10 12:04:00,53.8,13.6,30.15,NE,41,3.0,8.0,20,0.00,CLR,,0.00,WeatherDisplay:10.37,2013-04-10 19:04:00,
2013-04-10 12:14:00,53.5,14.4,30.15,NE,43,3.0,10.0,21,0.00,CLR,,0.00,WeatherDisplay:10.37,2013-04-10 19:14:00,
2013-04-10 12:19:00,54.4,14.1,30.15,NNE,22,2.0,6.0,20,0.00,CLR,,0.00,WeatherDisplay:10.37,2013-04-10 19:19:00,
2013-04-10 12:24:00,54.7,14.3,30.15,NNE,20,5.0,10.0,20,0.00,CLR,,0.00,WeatherDisplay:10.37,2013-04-10 19:24:00,
2013-04-10 12:29:00,55.0,14.6,30.15,ENE,60,6.0,9.0,20,0.00,CLR,,0.00,WeatherDisplay:10.37,2013-04-10 19:29:00,
2013-04-10 12:39:00,55.0,14.6,30.15,ENE,75,3.0,8.0,20,0.00,CLR,,0.00,WeatherDisplay:10.37,2013-04-10 19:39:00,
2013-04-10 12:44:00,55.0,14.6,30.15,East,81,3.0,6.0,20,0.00,CLR,,0.00,WeatherDisplay:10.37,2013-04-10 19:44:00,
2013-04-10 12:49:00,55.5,13.9,30.15,ENE,77,3.0,8.0,19,0.00,CLR,,0.00,WeatherDisplay:10.37,2013-04-10 19:49:00,
2013-04-10 12:54:00,55.7,11.5,30.15,ENE,72,1.0,9.0,17,0.00,CLR,,0.00,WeatherDisplay:10.37,2013-04-10 19:54:00,
2013-04-10 12:59:00,53.9,11.3,30.15,ENE,74,5.0,10.0,18,0.00,CLR,,0.00,WeatherDisplay:10.37,2013-04-10 19:59:00,
2013-04-10 13:04:00,54.0,11.3,30.15,ENE,66,1.0,6.0,18,0.00,CLR,,0.00,WeatherDisplay:10.37,2013-04-10 20:04:00,
2013-04-10 13:09:00,53.8,11.2,30.15,NNE,27,5.0,9.0,18,0.00,CLR,,0.00,WeatherDisplay:10.37,2013-04-10 20:09:00,
2013-04-10 13:14:00,54.3,11.6,30.15,NNE,27,3.0,6.0,18,0.00,CLR,,0.00,WeatherDisplay:10.37,2013-04-10 20:14:00,
2013-04-10 13:19:00,54.3,11.6,30.15,NE,39,2.0,6.0,18,0.00,CLR,,0.00,WeatherDisplay:10.37,2013-04-10 20:19:00,
2013-04-10 13:29:00,54.5,11.8,30.15,ENE,64,3.0,8.0,18,0.00,CLR,,0.00,WeatherDisplay:10.37,2013-04-10 20:29:00,
2013-04-10 13:34:00,55.4,11.2,30.12,NNE,31,1.0,6.0,17,0.00,CLR,,0.00,WeatherDisplay:10.37,2013-04-10 20:34:00,
2013-04-10 13:44:00,56.5,12.1,30.12,NW,311,3.0,8.0,17,0.00,CLR,,0.00,WeatherDisplay:10.37,2013-04-10 20:44:00,
2013-04-10 13:49:00,56.3,12.0,30.15,NW,318,3.0,9.0,17,0.00,CLR,,0.00,WeatherDisplay:10.37,2013-04-10 20:49:00,
2013-04-10 13:54:00,56.1,11.8,30.15,North,10,0.0,8.0,17,0.00,CLR,,0.00,WeatherDisplay:10.37,2013-04-10 20:54:00,
2013-04-10 13:59:00,56.9,12.5,30.15,ENE,65,0.0,6.0,17,0.00,CLR,,0.00,WeatherDisplay:10.37,2013-04-10 20:59:00,
2013-04-10 14:04:00,57.4,12.9,30.15,South,191,1.0,6.0,17,0.00,CLR,,0.00,WeatherDisplay:10.37,2013-04-10 21:04:00,
2013-04-10 14:09:00,57.2,12.7,30.15,WNW,286,3.0,10.0,17,0.00,CLR,,0.00,WeatherDisplay:10.37,2013-04-10 21:09:00,
2013-04-10 14:14:00,56.8,12.4,30.15,NW,311,1.0,10.0,17,0.00,CLR,,0.00,WeatherDisplay:10.37,2013-04-10 21:14:00,
2013-04-10 14:19:00,56.8,12.4,30.15,WNW,303,1.0,6.0,17,0.00,CLR,,0.00,WeatherDisplay:10.37,2013-04-10 21:19:00,
2013-04-10 14:24:00,57.2,12.7,30.15,NNE,12,0.0,6.0,17,0.00,CLR,,0.00,WeatherDisplay:10.37,2013-04-10 21:24:00,
2013-04-10 14:29:00,57.6,13.0,30.15,ENE,57,3.0,10.0,17,0.00,CLR,,0.00,WeatherDisplay:10.37,2013-04-10 21:29:00,
2013-04-10 14:34:00,56.8,12.4,30.15,ENE,63,2.0,10.0,17,0.00,CLR,,0.00,WeatherDisplay:10.37,2013-04-10 21:34:00,
2013-04-10 14:39:00,56.4,12.1,30.15,NE,53,5.0,7.0,17,0.00,CLR,,0.00,WeatherDisplay:10.37,2013-04-10 21:39:00,
2013-04-10 14:44:00,56.1,11.8,30.15,NE,46,1.0,6.0,17,0.00,CLR,,0.00,WeatherDisplay:10.37,2013-04-10 21:44:00,
2013-04-10 14:49:00,56.3,12.0,30.15,NE,37,2.0,6.0,17,0.00,CLR,,0.00,WeatherDisplay:10.37,2013-04-10 21:49:00,
2013-04-10 14:54:00,56.3,12.0,30.15,North,358,2.0,6.0,17,0.00,CLR,,0.00,WeatherDisplay:10.37,2013-04-10 21:54:00,
2013-04-10 15:04:00,56.0,11.7,30.15,ENE,65,1.0,6.0,17,0.00,CLR,,0.00,WeatherDisplay:10.37,2013-04-10 22:04:00,
2013-04-10 15:09:00,56.3,12.0,30.15,NE,56,5.0,10.0,17,0.00,CLR,,0.00,WeatherDisplay:10.37,2013-04-10 22:09:00,
2013-04-10 15:14:00,56.4,12.0,30.15,NNE,18,1.0,10.0,17,0.00,CLR,,0.00,WeatherDisplay:10.37,2013-04-10 22:14:00,
2013-04-10 15:19:00,56.5,15.8,30.12,North,4,5.0,8.0,20,0.00,CLR,,0.00,WeatherDisplay:10.37,2013-04-10 22:19:00,
2013-04-10 15:24:00,56.9,16.2,30.12,North,2,5.0,8.0,20,0.00,CLR,,0.00,WeatherDisplay:10.37,2013-04-10 22:24:00,
2013-04-10 15:29:00,56.9,15.0,30.12,North,359,3.0,11.0,19,0.00,CLR,,0.00,WeatherDisplay:10.37,2013-04-10 22:29:00,
2013-04-10 15:34:00,56.5,15.8,30.12,NNE,14,0.0,5.0,20,0.00,CLR,,0.00,WeatherDisplay:10.37,2013-04-10 22:34:00,
2013-04-10 15:39:00,56.7,16.0,30.12,NE,42,5.0,8.0,20,0.00,CLR,,0.00,WeatherDisplay:10.37,2013-04-10 22:39:00,
2013-04-10 15:44:00,55.9,13.0,30.12,NNE,20,7.0,10.0,18,0.00,CLR,,0.00,WeatherDisplay:10.37,2013-04-10 22:44:00,
2013-04-10 15:49:00,55.5,11.3,30.12,NE,34,3.0,8.0,17,0.00,CLR,,0.00,WeatherDisplay:10.37,2013-04-10 22:49:00,
2013-04-10 15:54:00,54.9,12.1,30.12,NNE,15,3.0,11.0,18,0.00,CLR,,0.00,WeatherDisplay:10.37,2013-04-10 22:54:00,
2013-04-10 15:59:00,55.4,15.0,30.12,North,358,3.0,8.0,20,0.00,CLR,,0.00,WeatherDisplay:10.37,2013-04-10 22:59:00,
2013-04-10 16:04:00,55.4,14.9,30.12,NNE,30,2.0,11.0,20,0.00,CLR,,0.00,WeatherDisplay:10.37,2013-04-10 23:04:00,
2013-04-10 16:09:00,55.0,14.6,30.12,ENE,62,0.0,10.0,20,0.00,CLR,,0.00,WeatherDisplay:10.37,2013-04-10 23:09:00,
2013-04-10 16:14:00,55.6,15.1,30.12,ENE,77,1.0,6.0,20,0.00,CLR,,0.00,WeatherDisplay:10.37,2013-04-10 23:14:00,
2013-04-10 16:19:00,55.5,15.0,30.12,NNE,18,1.0,8.0,20,0.00,CLR,,0.00,WeatherDisplay:10.37,2013-04-10 23:19:00,
2013-04-10 16:24:00,55.3,14.9,30.12,North,9,0.0,5.0,20,0.00,CLR,,0.00,WeatherDisplay:10.37,2013-04-10 23:24:00,
2013-04-10 16:29:00,55.4,14.9,30.12,WNW,293,2.0,6.0,20,0.00,CLR,,0.00,WeatherDisplay:10.37,2013-04-10 23:29:00,
2013-04-10 16:34:00,55.3,14.8,30.12,NNE,17,2.0,6.0,20,0.00,CLR,,0.00,WeatherDisplay:10.37,2013-04-10 23:34:00,
2013-04-10 16:44:00,53.7,13.5,30.12,ENE,61,0.0,0.0,20,0.00,CLR,,0.00,WeatherDisplay:10.37,2013-04-10 23:44:00,
2013-04-10 16:49:00,53.4,14.4,30.12,ENE,62,1.0,5.0,21,0.00,CLR,,0.00,WeatherDisplay:10.37,2013-04-10 23:49:00,
2013-04-10 16:54:00,53.4,14.4,30.12,NE,45,0.0,4.0,21,0.00,CLR,,0.00,WeatherDisplay:10.37,2013-04-10 23:54:00,
2013-04-10 17:04:00,53.2,14.2,30.12,ENE,69,0.0,5.0,21,0.00,CLR,,0.00,WeatherDisplay:10.37,2013-04-11 00:04:00,
2013-04-10 17:14:00,53.8,13.6,30.12,NNE,26,0.0,3.0,20,0.00,CLR,,0.00,WeatherDisplay:10.37,2013-04-11 00:14:00,
2013-04-10 17:24:00,53.4,14.4,30.12,NE,44,0.0,3.0,21,0.00,CLR,,0.00,WeatherDisplay:10.37,2013-04-11 00:24:00,
2013-04-10 17:29:00,52.7,13.8,30.12,NE,49,3.0,6.0,21,0.00,CLR,,0.00,WeatherDisplay:10.37,2013-04-11 00:29:00,
2013-04-10 17:34:00,52.3,13.5,30.12,ENE,57,0.0,5.0,21,0.00,CLR,,0.00,WeatherDisplay:10.37,2013-04-11 00:34:00,
2013-04-10 17:44:00,52.0,13.2,30.12,ENE,58,3.0,8.0,21,0.00,CLR,,0.00,WeatherDisplay:10.37,2013-04-11 00:44:00,
2013-04-10 17:49:00,51.8,13.0,30.12,ENE,72,0.0,4.0,21,0.00,CLR,,0.00,WeatherDisplay:10.37,2013-04-11 00:49:00,
2013-04-10 17:54:00,51.6,12.9,30.12,ENE,59,1.0,4.0,21,0.00,CLR,,0.00,WeatherDisplay:10.37,2013-04-11 00:54:00,
2013-04-10 18:04:00,51.6,12.9,30.12,NNW,330,0.0,0.0,21,0.00,CLR,,0.00,WeatherDisplay:10.37,2013-04-11 01:04:00,
2013-04-10 18:09:00,51.4,12.7,30.12,North,9,0.0,0.0,21,0.00,CLR,,0.00,WeatherDisplay:10.37,2013-04-11 01:09:00,
2013-04-10 18:14:00,51.1,12.4,30.12,NE,41,0.0,3.0,21,0.00,CLR,,0.00,WeatherDisplay:10.37,2013-04-11 01:14:00,
2013-04-10 18:19:00,50.9,12.3,30.12,NNE,29,0.0,3.0,21,0.00,CLR,,0.00,WeatherDisplay:10.37,2013-04-11 01:19:00,
2013-04-10 18:24:00,50.6,12.0,30.12,NNE,21,0.0,3.0,21,0.00,CLR,,0.00,WeatherDisplay:10.37,2013-04-11 01:24:00,
2013-04-10 18:29:00,50.4,11.8,30.12,NNE,32,1.0,5.0,21,0.00,CLR,,0.00,WeatherDisplay:10.37,2013-04-11 01:29:00,
2013-04-10 18:34:00,50.2,11.7,30.12,NNE,16,0.0,4.0,21,0.00,CLR,,0.00,WeatherDisplay:10.37,2013-04-11 01:34:00,
2013-04-10 18:39:00,50.0,11.5,30.12,North,359,0.0,0.0,21,0.00,CLR,,0.00,WeatherDisplay:10.37,2013-04-11 01:39:00,
2013-04-10 18:44:00,49.6,11.2,30.12,North,2,0.0,0.0,21,0.00,CLR,,0.00,WeatherDisplay:10.37,2013-04-11 01:44:00,
2013-04-10 18:49:00,49.3,10.9,30.12,North,3,1.0,4.0,21,0.00,CLR,,0.00,WeatherDisplay:10.37,2013-04-11 01:49:00,
2013-04-10 18:54:00,48.8,10.5,30.12,North,359,0.0,0.0,21,0.00,CLR,,0.00,WeatherDisplay:10.37,2013-04-11 01:54:00,
2013-04-10 18:59:00,48.2,10.0,30.12,North,358,0.0,0.0,21,0.00,CLR,,0.00,WeatherDisplay:10.37,2013-04-11 01:59:00,
2013-04-10 19:04:00,47.8,10.7,30.12,North,350,0.0,4.0,22,0.00,CLR,,0.00,WeatherDisplay:10.37,2013-04-11 02:04:00,
2013-04-10 19:09:00,47.4,10.4,30.12,North,352,0.0,0.0,22,0.00,CLR,,0.00,WeatherDisplay:10.37,2013-04-11 02:09:00,
2013-04-10 19:14:00,47.1,10.2,30.12,North,0,0.0,0.0,22,0.00,CLR,,0.00,WeatherDisplay:10.37,2013-04-11 02:14:00,
2013-04-10 19:19:00,46.8,9.9,30.12,North,0,0.0,0.0,22,0.00,CLR,,0.00,WeatherDisplay:10.37,2013-04-11 02:19:00,
2013-04-10 19:24:00,46.4,9.6,30.12,North,0,0.0,0.0,22,0.00,CLR,,0.00,WeatherDisplay:10.37,2013-04-11 02:24:00,
2013-04-10 19:29:00,46.0,9.2,30.12,North,0,0.0,0.0,22,0.00,CLR,,0.00,WeatherDisplay:10.37,2013-04-11 02:29:00,
2013-04-10 19:34:00,46.0,9.2,30.12,North,349,0.0,0.0,22,0.00,CLR,,0.00,WeatherDisplay:10.37,2013-04-11 02:34:00,
2013-04-10 19:39:00,45.9,9.1,30.12,NNW,337,0.0,0.0,22,0.00,CLR,,0.00,WeatherDisplay:10.37,2013-04-11 02:39:00,
2013-04-10 19:44:00,45.5,8.8,30.12,NNW,337,0.0,0.0,22,0.00,CLR,,0.00,WeatherDisplay:10.37,2013-04-11 02:44:00,
2013-04-10 19:49:00,45.3,8.6,30.12,NNW,339,0.0,0.0,22,0.00,CLR,,0.00,WeatherDisplay:10.37,2013-04-11 02:49:00,
2013-04-10 19:54:00,45.6,8.9,30.12,NNW,341,0.0,0.0,22,0.00,CLR,,0.00,WeatherDisplay:10.37,2013-04-11 02:54:00,
2013-04-10 20:04:00,45.7,8.9,30.12,North,360,3.0,4.0,22,0.00,CLR,,0.00,WeatherDisplay:10.37,2013-04-11 03:04:00,
2013-04-10 20:09:00,45.3,8.6,30.12,NNE,19,2.0,6.0,22,0.00,CLR,,0.00,WeatherDisplay:10.37,2013-04-11 03:09:00,
2013-04-10 20:14:00,44.8,8.2,30.12,NNE,29,0.0,0.0,22,0.00,CLR,,0.00,WeatherDisplay:10.37,2013-04-11 03:14:00,
2013-04-10 20:19:00,44.2,8.7,30.12,NE,35,0.0,0.0,23,0.00,CLR,,0.00,WeatherDisplay:10.37,2013-04-11 03:19:00,
2013-04-10 20:24:00,44.1,8.6,30.12,NE,43,0.0,0.0,23,0.00,CLR,,0.00,WeatherDisplay:10.37,2013-04-11 03:24:00,
2013-04-10 20:29:00,44.1,8.6,30.12,NE,51,0.0,0.0,23,0.00,CLR,,0.00,WeatherDisplay:10.37,2013-04-11 03:29:00,
2013-04-10 20:39:00,44.1,8.6,30.12,NE,51,0.0,0.0,23,0.00,CLR,,0.00,WeatherDisplay:10.37,2013-04-11 03:39:00,
2013-04-10 20:44:00,44.1,8.6,30.12,NE,51,0.0,0.0,23,0.00,CLR,,0.00,WeatherDisplay:10.37,2013-04-11 03:44:00,
2013-04-10 20:49:00,43.8,8.3,30.12,NE,51,0.0,0.0,23,0.00,CLR,,0.00,WeatherDisplay:10.37,2013-04-11 03:49:00,
2013-04-10 20:54:00,43.3,8.0,30.12,NE,51,0.0,0.0,23,0.00,CLR,,0.00,WeatherDisplay:10.37,2013-04-11 03:54:00,
2013-04-10 20:59:00,42.8,9.3,30.12,NE,51,0.0,0.0,25,0.00,CLR,,0.00,WeatherDisplay:10.37,2013-04-11 03:59:00,
2013-04-10 21:04:00,42.6,10.1,30.15,NE,51,0.0,0.0,26,0.00,CLR,,0.00,WeatherDisplay:10.37,2013-04-11 04:04:00,
2013-04-10 21:09:00,42.4,9.9,30.15,NE,51,0.0,0.0,26,0.00,CLR,,0.00,WeatherDisplay:10.37,2013-04-11 04:09:00,
2013-04-10 21:14:00,42.3,9.8,30.15,NE,45,0.0,0.0,26,0.00,CLR,,0.00,WeatherDisplay:10.37,2013-04-11 04:14:00,
2013-04-10 21:19:00,42.4,9.9,30.15,North,9,0.0,4.0,26,0.00,CLR,,0.00,WeatherDisplay:10.37,2013-04-11 04:19:00,
2013-04-10 21:24:00,42.6,10.1,30.15,NNW,344,0.0,0.0,26,0.00,CLR,,0.00,WeatherDisplay:10.37,2013-04-11 04:24:00,
2013-04-10 21:29:00,42.8,9.3,30.15,NNW,344,0.0,0.0,25,0.00,CLR,,0.00,WeatherDisplay:10.37,2013-04-11 04:29:00,
2013-04-10 21:34:00,42.8,9.3,30.15,NNW,344,0.0,0.0,25,0.00,CLR,,0.00,WeatherDisplay:10.37,2013-04-11 04:34:00,
2013-04-10 21:39:00,42.3,11.5,30.15,NW,314,0.0,0.0,28,0.00,CLR,,0.00,WeatherDisplay:10.37,2013-04-11 04:39:00,
2013-04-10 21:44:00,41.7,11.0,30.15,West,266,0.0,0.0,28,0.00,CLR,,0.00,WeatherDisplay:10.37,2013-04-11 04:44:00,
2013-04-10 21:49:00,41.0,10.3,30.15,West,265,0.0,0.0,28,0.00,CLR,,0.00,WeatherDisplay:10.37,2013-04-11 04:49:00,
2013-04-10 21:54:00,41.0,11.1,30.15,WNW,301,0.0,0.0,29,0.00,CLR,,0.00,WeatherDisplay:10.37,2013-04-11 04:54:00,
2013-04-10 21:59:00,41.0,11.1,30.15,NNW,348,0.0,0.0,29,0.00,CLR,,0.00,WeatherDisplay:10.37,2013-04-11 04:59:00,
2013-04-10 22:04:00,41.2,11.3,30.15,North,0,0.0,0.0,29,0.00,CLR,,0.00,WeatherDisplay:10.37,2013-04-11 05:04:00,
2013-04-10 22:09:00,41.2,11.3,30.15,North,0,0.0,0.0,29,0.00,CLR,,0.00,WeatherDisplay:10.37,2013-04-11 05:09:00,
2013-04-10 22:14:00,41.2,11.3,30.15,North,0,0.0,0.0,29,0.00,CLR,,0.00,WeatherDisplay:10.37,2013-04-11 05:14:00,
2013-04-10 22:19:00,40.8,11.0,30.15,North,0,0.0,0.0,29,0.00,CLR,,0.00,WeatherDisplay:10.37,2013-04-11 05:19:00,
2013-04-10 22:24:00,40.3,10.5,30.15,North,0,0.0,0.0,29,0.00,CLR,,0.00,WeatherDisplay:10.37,2013-04-11 05:24:00,
2013-04-10 22:29:00,40.3,10.5,30.15,North,354,0.0,0.0,29,0.00,CLR,,0.00,WeatherDisplay:10.37,2013-04-11 05:29:00,
2013-04-10 22:34:00,40.3,10.5,30.15,NNW,341,0.0,0.0,29,0.00,CLR,,0.00,WeatherDisplay:10.37,2013-04-11 05:34:00,
2013-04-10 22:39:00,39.9,10.2,30.15,NNW,334,0.0,0.0,29,0.00,CLR,,0.00,WeatherDisplay:10.37,2013-04-11 05:39:00,
2013-04-10 22:44:00,39.5,9.8,30.15,NNW,334,0.0,0.0,29,0.00,CLR,,0.00,WeatherDisplay:10.37,2013-04-11 05:44:00,
2013-04-10 22:49:00,39.2,9.6,30.15,NNW,334,0.0,0.0,29,0.00,CLR,,0.00,WeatherDisplay:10.37,2013-04-11 05:49:00,
2013-04-10 22:54:00,38.8,10.0,30.15,NNW,334,0.0,0.0,30,0.00,CLR,,0.00,WeatherDisplay:10.37,2013-04-11 05:54:00,
2013-04-10 22:59:00,38.7,9.9,30.15,NNW,334,0.0,0.0,30,0.00,CLR,,0.00,WeatherDisplay:10.37,2013-04-11 05:59:00,
2013-04-10 23:04:00,38.7,9.8,30.12,NNW,334,0.0,0.0,30,0.00,CLR,,0.00,WeatherDisplay:10.37,2013-04-11 06:04:00,
2013-04-10 23:09:00,38.5,9.7,30.12,NNW,334,0.0,0.0,30,0.00,CLR,,0.00,WeatherDisplay:10.37,2013-04-11 06:09:00,
2013-04-10 23:14:00,38.7,9.8,30.12,NNW,334,0.0,0.0,30,0.00,CLR,,0.00,WeatherDisplay:10.37,2013-04-11 06:14:00,
2013-04-10 23:19:00,38.7,9.8,30.12,NNW,334,0.0,0.0,30,0.00,CLR,,0.00,WeatherDisplay:10.37,2013-04-11 06:19:00,
2013-04-10 23:24:00,38.5,9.7,30.12,NNW,334,0.0,0.0,30,0.00,CLR,,0.00,WeatherDisplay:10.37,2013-04-11 06:24:00,
2013-04-10 23:29:00,38.3,9.5,30.12,NNW,334,0.0,0.0,30,0.00,CLR,,0.00,WeatherDisplay:10.37,2013-04-11 06:29:00,
2013-04-10 23:34:00,37.9,9.2,30.12,NNW,334,0.0,0.0,30,0.00,CLR,,0.00,WeatherDisplay:10.37,2013-04-11 06:34:00,
2013-04-10 23:39:00,37.7,9.0,30.12,NNW,334,0.0,0.0,30,0.00,CLR,,0.00,WeatherDisplay:10.37,2013-04-11 06:39:00,
2013-04-10 23:44:00,37.6,8.9,30.12,NNW,334,0.0,0.0,30,0.00,CLR,,0.00,WeatherDisplay:10.37,2013-04-11 06:44:00,
2013-04-10 23:49:00,37.9,9.2,30.12,NNW,334,0.0,0.0,30,0.00,CLR,,0.00,WeatherDisplay:10.37,2013-04-11 06:49:00,
2013-04-10 23:54:00,38.2,9.4,30.12,NNW,334,0.0,0.0,30,0.00,CLR,,0.00,WeatherDisplay:10.37,2013-04-11 06:54:00,
2013-04-10 23:59:00,38.1,9.4,30.12,NNW,334,0.0,0.0,30,0.00,CLR,,0.00,WeatherDisplay:10.37,2013-04-11 06:59:00,